EZY87PX EGKK-LEIB

Flight info

Callsign EZY87PX
Flight time N/A
Altitude 35000
Route SFD1X SFD Y47 DRAKE L151 SITET UN859 SOPIL DCT BALAN DCT EVPOK DCT NARAK DCT GAI DCT LOMRA DCT ROCAN/N0416F310 DCT PUMAL N859 BCN Z174 CORDA CORDA6N
Aircraft A320/M-SDE3FGHIRWY/LB1

Departure

Time 2026-04-16 12:43
Airport London Gatwick Airport (EGKK)

Arrival

Time N/A
Airport Ibiza Airport (LEIB)
Time Latitude Longitude Altitude Speed Heading
2026-04-16 12:06 51.15860 -0.17943 209 ft 0 kts 78°
2026-04-16 12:30 51.15858 -0.17960 218 ft 3 kts 79°
2026-04-16 12:30 51.15854 -0.17992 212 ft 3 kts 83°
2026-04-16 12:30 51.15853 -0.18024 216 ft 3 kts 90°
2026-04-16 12:31 51.15854 -0.18055 216 ft 3 kts 105°
2026-04-16 12:31 51.15861 -0.18082 217 ft 3 kts 147°
2026-04-16 12:31 51.15867 -0.18088 219 ft 0 kts 167°
2026-04-16 12:34 51.15863 -0.18087 217 ft 2 kts 167°
2026-04-16 12:35 51.15830 -0.18075 215 ft 7 kts 167°
2026-04-16 12:35 51.15798 -0.18064 213 ft 4 kts 168°
2026-04-16 12:35 51.15766 -0.18053 213 ft 4 kts 168°
2026-04-16 12:35 51.15744 -0.18046 219 ft 2 kts 168°
2026-04-16 12:36 51.15721 -0.18037 211 ft 6 kts 165°
2026-04-16 12:36 51.15699 -0.17957 209 ft 12 kts 79°
2026-04-16 12:36 51.15719 -0.17805 212 ft 14 kts 77°
2026-04-16 12:36 51.15739 -0.17658 215 ft 13 kts 78°
2026-04-16 12:37 51.15747 -0.17528 213 ft 11 kts 112°
2026-04-16 12:37 51.15681 -0.17487 210 ft 11 kts 167°
2026-04-16 12:37 51.15602 -0.17459 210 ft 12 kts 168°
2026-04-16 12:37 51.15513 -0.17428 208 ft 14 kts 167°
2026-04-16 12:38 51.15413 -0.17393 208 ft 15 kts 167°
2026-04-16 12:38 51.15305 -0.17356 218 ft 17 kts 168°
2026-04-16 12:38 51.15201 -0.17268 213 ft 18 kts 143°
2026-04-16 12:38 51.15192 -0.17102 213 ft 15 kts 77°
2026-04-16 12:39 51.15214 -0.16944 210 ft 14 kts 77°
2026-04-16 12:39 51.15220 -0.16857 208 ft 0 kts 101°
2026-04-16 12:41 51.15220 -0.16852 208 ft 2 kts 101°
2026-04-16 12:41 51.15203 -0.16804 210 ft 8 kts 134°
2026-04-16 12:41 51.15118 -0.16833 208 ft 17 kts 245°
2026-04-16 12:42 51.15105 -0.16924 208 ft 0 kts 257°
2026-04-16 12:42 51.15102 -0.16944 208 ft 8 kts 257°
2026-04-16 12:42 51.15037 -0.17416 213 ft 78 kts 257°
2026-04-16 12:43 51.14876 -0.18577 209 ft 135 kts 257°
2026-04-16 12:43 51.14652 -0.20210 499 ft 153 kts 255°
2026-04-16 12:43 51.14427 -0.21854 1239 ft 152 kts 254°
2026-04-16 12:43 51.14187 -0.23576 1719 ft 169 kts 255°
2026-04-16 12:44 51.13915 -0.25500 2142 ft 185 kts 256°
2026-04-16 12:44 51.13635 -0.27506 2776 ft 190 kts 257°
2026-04-16 12:44 51.13353 -0.29590 3434 ft 194 kts 256°
2026-04-16 12:44 51.13067 -0.31699 4018 ft 200 kts 256°
2026-04-16 12:45 51.12771 -0.33842 3932 ft 195 kts 256°
2026-04-16 12:45 51.12464 -0.35990 4298 ft 198 kts 256°
2026-04-16 12:45 51.12169 -0.38104 5131 ft 197 kts 257°
2026-04-16 12:45 51.11869 -0.40240 5807 ft 199 kts 254°
2026-04-16 12:46 51.11197 -0.42187 5976 ft 205 kts 222°
2026-04-16 12:46 51.09915 -0.43139 5983 ft 208 kts 191°
2026-04-16 12:46 51.08459 -0.42935 6068 ft 215 kts 171°
2026-04-16 12:46 51.06973 -0.42324 6085 ft 231 kts 163°
2026-04-16 12:47 51.05558 -0.41027 6145 ft 249 kts 143°
2026-04-16 12:47 51.04314 -0.38864 6524 ft 273 kts 133°
2026-04-16 12:47 51.03077 -0.36549 7122 ft 283 kts 134°
2026-04-16 12:47 51.01770 -0.34165 7886 ft 288 kts 134°
2026-04-16 12:48 51.00441 -0.31765 8668 ft 292 kts 135°
2026-04-16 12:48 50.99004 -0.29491 9451 ft 292 kts 149°
2026-04-16 12:48 50.97188 -0.28140 10196 ft 288 kts 172°
2026-04-16 12:48 50.95190 -0.27553 10619 ft 302 kts 174°
2026-04-16 12:49 50.93042 -0.26980 10845 ft 323 kts 174°
2026-04-16 12:49 50.90790 -0.26383 11391 ft 332 kts 174°
2026-04-16 12:49 50.88492 -0.25769 12061 ft 337 kts 174°
2026-04-16 12:49 50.86169 -0.25140 12771 ft 340 kts 174°
2026-04-16 12:50 50.83821 -0.24496 13451 ft 345 kts 174°
2026-04-16 12:50 50.81443 -0.23843 14114 ft 348 kts 174°
2026-04-16 12:50 50.79075 -0.23200 14714 ft 352 kts 174°
2026-04-16 12:50 50.76652 -0.22540 15313 ft 355 kts 174°
2026-04-16 12:51 50.74213 -0.21874 15917 ft 358 kts 174°
2026-04-16 12:51 50.71747 -0.21203 16509 ft 361 kts 174°
2026-04-16 12:51 50.69259 -0.20528 17106 ft 364 kts 174°
2026-04-16 12:51 50.66750 -0.19850 17702 ft 367 kts 174°
2026-04-16 12:52 50.64220 -0.19167 18272 ft 370 kts 174°
2026-04-16 12:52 50.61671 -0.18480 18797 ft 374 kts 175°
2026-04-16 12:52 50.59094 -0.17790 19292 ft 377 kts 175°
2026-04-16 12:52 50.56495 -0.17096 19800 ft 380 kts 175°
2026-04-16 12:53 50.53881 -0.16396 20304 ft 383 kts 175°
2026-04-16 12:53 50.51279 -0.15697 20810 ft 386 kts 175°
2026-04-16 12:53 50.48619 -0.14980 21288 ft 389 kts 175°
2026-04-16 12:53 50.45941 -0.14262 21783 ft 393 kts 175°
2026-04-16 12:54 50.43234 -0.13537 22268 ft 396 kts 175°
2026-04-16 12:54 50.40508 -0.12814 22752 ft 399 kts 175°
2026-04-16 12:54 50.37757 -0.12088 23220 ft 402 kts 176°
2026-04-16 12:54 50.34989 -0.11356 23697 ft 405 kts 176°
2026-04-16 12:55 50.32200 -0.10613 24098 ft 408 kts 176°
2026-04-16 12:55 50.29387 -0.09862 24472 ft 411 kts 176°
2026-04-16 12:55 50.26560 -0.09108 24846 ft 414 kts 176°
2026-04-16 12:55 50.23716 -0.08351 25208 ft 416 kts 176°
2026-04-16 12:56 50.20865 -0.07366 25559 ft 424 kts 168°
2026-04-16 12:56 50.18089 -0.05656 25898 ft 432 kts 161°
2026-04-16 12:56 50.15336 -0.03740 26238 ft 435 kts 161°
2026-04-16 12:56 50.12604 -0.01836 26574 ft 437 kts 162°
2026-04-16 12:57 50.09796 -0.00023 26893 ft 435 kts 168°
2026-04-16 12:57 50.06891 0.01238 27220 ft 434 kts 172°
2026-04-16 12:57 50.03958 0.02400 27546 ft 436 kts 172°
2026-04-16 12:57 50.01013 0.03561 27866 ft 438 kts 172°
2026-04-16 12:58 49.98046 0.04725 28192 ft 440 kts 172°
2026-04-16 12:58 49.95075 0.05887 28496 ft 443 kts 172°
2026-04-16 12:58 49.92078 0.07055 28803 ft 445 kts 172°
2026-04-16 12:58 49.89067 0.08231 29101 ft 447 kts 172°
2026-04-16 12:59 49.86048 0.09415 29392 ft 449 kts 172°
2026-04-16 12:59 49.83014 0.10603 29667 ft 451 kts 172°
2026-04-16 12:59 49.79964 0.11797 29939 ft 453 kts 172°
2026-04-16 13:00 49.73824 0.14190 30461 ft 457 kts 172°
2026-04-16 13:00 49.70734 0.15395 30669 ft 458 kts 172°
2026-04-16 13:00 49.67679 0.16589 30897 ft 460 kts 172°
2026-04-16 13:00 49.64572 0.17817 31119 ft 462 kts 172°
2026-04-16 13:01 49.61468 0.19067 31425 ft 461 kts 172°
2026-04-16 13:01 49.58368 0.20328 31736 ft 460 kts 172°
2026-04-16 13:01 49.55282 0.21585 32024 ft 459 kts 172°
2026-04-16 13:01 49.52195 0.22835 32325 ft 458 kts 172°
2026-04-16 13:02 49.49107 0.24081 32634 ft 458 kts 172°
2026-04-16 13:02 49.46034 0.25315 32935 ft 457 kts 172°
2026-04-16 13:02 49.42956 0.26544 33231 ft 456 kts 172°
2026-04-16 13:02 49.39891 0.27766 33524 ft 456 kts 172°
2026-04-16 13:03 49.36825 0.28986 33827 ft 455 kts 172°
2026-04-16 13:03 49.33763 0.30207 34129 ft 454 kts 172°
2026-04-16 13:03 49.30704 0.31425 34405 ft 454 kts 172°
2026-04-16 13:03 49.27655 0.32662 34661 ft 453 kts 172°
2026-04-16 13:04 49.24652 0.33919 34905 ft 453 kts 171°
2026-04-16 13:04 49.21622 0.35208 35131 ft 453 kts 171°
2026-04-16 13:04 49.18590 0.36507 35226 ft 450 kts 171°
2026-04-16 13:05 49.12611 0.39066 35244 ft 445 kts 171°
2026-04-16 13:05 49.06648 0.41564 35246 ft 444 kts 171°
2026-04-16 13:06 49.00697 0.44036 35249 ft 443 kts 171°
2026-04-16 13:06 48.94740 0.46513 35248 ft 443 kts 171°
2026-04-16 13:07 48.88837 0.48969 35247 ft 443 kts 171°
2026-04-16 13:07 48.82893 0.51443 35243 ft 443 kts 171°
2026-04-16 13:08 48.76946 0.53901 35245 ft 443 kts 171°
2026-04-16 13:08 48.70981 0.56254 35241 ft 442 kts 172°
2026-04-16 13:09 48.65018 0.58545 35248 ft 442 kts 172°
2026-04-16 13:09 48.59049 0.60855 35254 ft 443 kts 172°
2026-04-16 13:10 48.53089 0.63184 35254 ft 443 kts 172°
2026-04-16 13:10 48.47166 0.65537 35256 ft 443 kts 171°
2026-04-16 13:11 48.41211 0.67984 35254 ft 444 kts 171°
2026-04-16 13:11 48.35260 0.70415 35252 ft 444 kts 171°
2026-04-16 13:12 48.29297 0.72837 35251 ft 444 kts 171°
2026-04-16 13:12 48.23334 0.75245 35260 ft 444 kts 171°
2026-04-16 13:13 48.17402 0.77579 35260 ft 443 kts 171°
2026-04-16 13:13 48.11433 0.79914 35258 ft 444 kts 171°
2026-04-16 13:14 48.05458 0.82253 35263 ft 444 kts 171°
2026-04-16 13:14 47.99478 0.84586 35257 ft 444 kts 171°
2026-04-16 13:15 47.93500 0.86912 35258 ft 444 kts 171°
2026-04-16 13:15 47.87523 0.89246 35255 ft 444 kts 171°
2026-04-16 13:16 47.81538 0.91576 35253 ft 444 kts 171°
2026-04-16 13:16 47.75554 0.93896 35248 ft 444 kts 171°
2026-04-16 13:17 47.69615 0.96191 35250 ft 444 kts 171°
2026-04-16 13:17 47.63629 0.98497 35253 ft 444 kts 171°
2026-04-16 13:18 47.57645 1.00790 35250 ft 444 kts 171°
2026-04-16 13:18 47.51657 1.03086 35253 ft 444 kts 170°
2026-04-16 13:19 47.45672 1.05387 35253 ft 444 kts 171°
2026-04-16 13:19 47.39630 1.06386 35256 ft 433 kts 186°
2026-04-16 13:20 47.33641 1.06214 35253 ft 433 kts 186°
2026-04-16 13:20 47.27608 1.06076 35250 ft 434 kts 186°
2026-04-16 13:21 47.21569 1.05944 35251 ft 434 kts 186°
2026-04-16 13:21 47.15531 1.05809 35252 ft 434 kts 186°
2026-04-16 13:22 47.09490 1.05663 35252 ft 434 kts 186°
2026-04-16 13:22 47.03445 1.05509 35251 ft 434 kts 186°
2026-04-16 13:23 46.97401 1.05313 35255 ft 434 kts 186°
2026-04-16 13:23 46.91361 1.05045 35253 ft 434 kts 186°
2026-04-16 13:24 46.85361 1.04766 35258 ft 434 kts 186°
2026-04-16 13:24 46.79325 1.04499 35256 ft 435 kts 186°
2026-04-16 13:25 46.73273 1.04253 35256 ft 435 kts 186°
2026-04-16 13:25 46.67225 1.04002 35254 ft 435 kts 186°
2026-04-16 13:26 46.61171 1.03748 35255 ft 435 kts 186°
2026-04-16 13:26 46.55120 1.03479 35249 ft 435 kts 186°
2026-04-16 13:27 46.49054 1.04182 35247 ft 443 kts 171°
2026-04-16 13:27 46.43081 1.06214 35246 ft 444 kts 171°
2026-04-16 13:28 46.37059 1.08214 35249 ft 444 kts 171°
2026-04-16 13:28 46.31035 1.10212 35246 ft 444 kts 171°
2026-04-16 13:29 46.25000 1.12211 35246 ft 445 kts 171°
2026-04-16 13:29 46.18971 1.14216 35245 ft 445 kts 171°
2026-04-16 13:30 46.12932 1.16224 35248 ft 445 kts 171°
2026-04-16 13:30 46.06892 1.18227 35249 ft 445 kts 171°
2026-04-16 13:31 46.00891 1.20193 35253 ft 445 kts 171°
2026-04-16 13:31 45.94843 1.22166 35256 ft 446 kts 171°
2026-04-16 13:32 45.88791 1.24153 35270 ft 446 kts 171°
2026-04-16 13:32 45.82741 1.26140 35254 ft 446 kts 171°
2026-04-16 13:33 45.76684 1.28129 35267 ft 446 kts 170°
2026-04-16 13:33 45.70631 1.30113 35260 ft 446 kts 171°
2026-04-16 13:34 45.64615 1.32066 35256 ft 447 kts 171°
2026-04-16 13:34 45.58547 1.34022 35250 ft 447 kts 170°
2026-04-16 13:35 45.52482 1.35981 35240 ft 447 kts 170°
2026-04-16 13:35 45.46415 1.37942 35240 ft 447 kts 170°
2026-04-16 13:36 45.40355 1.39893 35244 ft 447 kts 170°
2026-04-16 13:36 45.34286 1.41850 35237 ft 447 kts 170°
2026-04-16 13:37 45.28220 1.43803 35234 ft 447 kts 170°
2026-04-16 13:37 45.22151 1.45742 35231 ft 447 kts 170°
2026-04-16 13:38 45.16116 1.47665 35233 ft 447 kts 170°
2026-04-16 13:38 45.10048 1.49602 35231 ft 447 kts 170°
2026-04-16 13:39 45.03974 1.51546 35231 ft 447 kts 170°
2026-04-16 13:39 44.97900 1.53473 35231 ft 447 kts 170°
2026-04-16 13:40 44.91823 1.55391 35234 ft 448 kts 170°
2026-04-16 13:40 44.85746 1.57312 35230 ft 448 kts 170°
2026-04-16 13:41 44.79704 1.59215 35231 ft 448 kts 170°
2026-04-16 13:41 44.73627 1.61130 35229 ft 448 kts 170°